[Date Prev][Date Next][Thread Prev][Thread Next][Date Index][Thread Index]

[jamsat-news:1250] jas2info #181



========================   最新情報   ==============================

        Last updated :Sat.1-Apr.-2000 19:15 (JST) #181

====================================================================
   
  1)アマチュア通信衛星情報 FOシリーズの軌道要素、テレメトリ、
   QSOの状況等をまとめてみました.
   
   FO−29の3月30日(木)のテレメトリはJARLのホームページの
  運用予定のとうり12:03(JST)のパスではアナログ系運用になって
  おりました.CW信号でテレメトリを12:05〜12:17(JST)に
  受信できました.
  現在まで、当局で取得したデータの1部を掲載しておきます.

 AS17860C1  30Mar2000
 12:03-12:18(JST)
 Freq.435.805-.786MHz

 HI HI AE C7 88 55 0C 30 FF 0D 00 2E 56 3A 7C 5F 93 91 9F 84 B7 B6 B8 B7 B4 
 HI HI AE C7 88 55 0A 30 FF 0D 00 2E 50 85 65 54 91 8F 9D 81 B7 B6 B8 B7 B4  
 HI HI AE 07 88 55 17 30 FF 0D 00 2E 83 40 83 60 93 8F 9D 73 B7 B5 B8 B7 B4 
 HI HI AE C7 88 55 1C 30 FF 0D 00 2E 38 6C 64 56 93 90 9D 81 B7 B5 B8 B7 B4 
 HI HI AE 07 88 55 01 30 FF 0D 00 2E 86 7C 76 4B 95 93 B0 89 B7 B5 B8 B7 B4 
 HI HI AE C7 88 55 06 30 FF 0D 00 2E 61 39 7C 60 92 8F 9E 8C B7 B5 B7 B7 B4 
 HI HI AE 07 88 55 09 30 FF 0D 0O 2E 81 46 89 58 92 99       B7 B5 B7 B7 B4 
 HI HI AE C7 88 55 11 30 FF 0D 00 2E 9D 52 89 60 93 90 B0 8C B7 B4 B7 B7 B4 
 HI HI AE C7 88 55 16 30 FF 0D 00 2E 3E 71 6C 60 93 90 9E BE B7 B4 B7 B7 B4 
 HI HI AE 07 88 55 1B 30 FF 0D 00 2E 68 A0 6D 60 93 90 9F 91 B6 B4 B7 B7 B4 
 HI HI AE 07 88 55 00 30 FF 0D 00 2E 7F 48 7E 4A 94 91 B0 90 B6 B4 B6 B7 B3 
 HI HI AE 07 88 55 05 30 FF 0D 00 2E 50 B2 5C 5A 93 91 9D 81 B6 B4 B6 B7 B4  
 HI HI AE C7 88 55 0B 30 FF 0D 00 2E AA 78 80 60 93 92 A0 74 B6 B3 B6 B7 B4 
 HI HI AE 07 88 55 10 30 FF 0D 00 2E 5C 80 7A 60 95 92 B0 77 B6 B3 B6 B6 B4 
 HI HI AE 07 88 55 15 30 FF 0D 00 2E 86 B8 6F 60 95 92 B0 6A B6 B6 B6 B6 B4 
 HI HI AE 07 88 55 1A 30 FF 0D 00 2E 9A 71 90 60 93 91 B0 6A B6 B3 B6 B6 B4 
 HI HI AE C7 88 55 0A 30 FF 0D 00 2E 64 B7 70 50 95 92 B0 79 B6 B3 B6 B6 B4 
 HI HI AE 07 88 55 04 30 FF OD 00 2E          60 94 91 A0 86 B6 B3 B5 B6 B4 
 HI HI AE C7 88 55 09 30 FF 0D 00 2E 7C BA 7E 5F 92 91 9F 7D B6 B3 B5 B6 B4 
 HI HI AE C7 88 55 0E 30 FF 0D 00 2E 87 BF 68 60 92 90 B0 57 B6 B2 B5 B6 B4 
  
 AS17847C1  29Mar2000
 12:59-13:11 

 HI HI AE 47 88 55 01 30 FF 0D 00 2E 49 54 6C 52 95 92 A0 7B B7 B8 B8 B5 B4 
 HI HI AE 07 88 55 06 30 05 0D 00 2E 95 58 80 48 95 91 B0 6D B7 B7 B8 B5 B4 
 HI HI AE 87 88 55 0C 30 1E 0D 00 2E 4D 45 76 60 93 90 B0    B7 B7 B8 B5 B4 
 HI HI AE 07 88 55 11 30 FF 0D 00 2E 6B 7A BE 60 93 91 B0 7E B7 B7 B7 B5 B4 
 HI HI AE C7 88 55 16 30 FF 0D 00 2E 3F 4B 74 60 92 90 B0 A9 B6 B7 B7 B5 B4 
 HI HI AE C7 88 55 1B 30 FF 0D 00 2E 33 70 66 55 95 92 9F 7C B6 B7 B7 B5 B4 
 HI HI AE 07 88 55 00 30 FF 1A 00 2E 95 83 78 4A 95 92 B0 CA B6 B6 B7 B5 B4 
 HI HI AE 07 88 55 05 30 05 0D 00 2E 61 4F 83 60 93 91 B0 7E B6 B6 B7 B4 B4 
 HI HI AE 07 88 55 0A 30 FF 0D 00 2E 6E 6B AE 60 92 90 B0 9E B6 B6 B7 B4 B4 
 HI HI AE C7 88 55 0F 30 FF 1E 00 2E A6 73 84 60 93 90 B0 7B B6 B6 B7 B4 B4 
 HI HI AE C7 78 55 14 30 FF 0D 00 2E 3F 73 7A 60 93 90 B0 C4 B6 B6 B4 B4 B4
 HI HI AE 07 88 55 1A 30 FF 0D 00 2E 7A B5 6B 53 93 91 B0 90 B6 B6 B7 B4 B4 
 HI HI AE 07 88 55 1F 30 FF 0D 00 2E 8D 60 86 46 93 91 B0 78 B5 B5 66 B4 B4 
 HI HI AE 07 88 55 04 30 FF 0D 00 2E 3F AB BE 51 93 91 B0 58 B5 B5 B6 B4 B4 
 HI HI AE 07 88 55 09 30 FF 0D 00 2E A3 9E 79 5F 94 92 A0 78 B5 B5 B6 B4 B4 
 HI HI AE C7 88 55 0E 30 FF 0D 00 2E 65 74 84 60 92 90 B0 6F B5 B5 B6 B4 B4 
 HI HI AE C7 88 55 13 30 FF 1E 00 2E 66 94       92 91 9F 62 BH B4 B6 B4 B4

 ------------------------ FO-29の軌道要素 ------------------------------        
 
  ■ 軌道要素1:「jamsat−keps:980」より              
            SB KEPS @ AMSAT  $ORB00091.N
            2Line Orbital Elements 00091.AMSAT

 HR AMSAT ORBITAL ELEMENTS FOR AMATEUR SATELLITES IN NASA FORMAT
 FROM WA5QGD FORT WORTH,TX March 31, 2000
 SEND SUBSCRIBE/UNSUBSCRIBE TO majordomo@amsat.org ONLY
 BID: ORB00091.N

  DECODE 2-LINE ELSETS WITH THE FOLLOWING KEY:
  1 AAAAAU 00  0  0 BBBBB.BBBBBBBB  .CCCCCCCC  00000-0  00000-0 0  DDDZ
  2 AAAAA EEE.EEEE FFF.FFFF GGGGGGG HHH.HHHH III.IIII JJ.JJJJJJJJKKKKKZ
  KEY: A-CATALOGNUM B-EPOCHTIME C-DECAY D-ELSETNUM E-INCLINATION F-RAAN
  G-ECCENTRICITY H-ARGPERIGEE I-MNANOM J-MNMOTION K-ORBITNUM Z-CHECKSUM

  TO ALL RADIO AMATEURS BT

 FO-29
 1 24278U 96046B   00089.75639289  .00000119  00000-0  15477-3 0 03200
 2 24278 098.5893 008.0352 0352021 072.5019 291.4256 13.52706561178553

 ■ 軌道要素2:「jamsat−keps:979」より                         
         SB KEPS @ AMSAT  $ORB00091.O
         Orbital Elements  00091.OSCAR

 HR AMSAT ORBITAL ELEMENTS FOR OSCAR SATELLITES
 FROM WA5QGD FORT WORTH,TX March 31, 2000
 SEND SUBSCRIBE/UNSUBSCRIBE TO majordomo@amsat.org ONLY
 BID: ORB00091.O
  TO ALL RADIO AMATEURS BT

  Satellite: FO-29
 Catalog number: 24278
 Epoch time:      00089.75639289
 Element set:    0320
 Inclination:      098.5893 deg
 RA of node:       008.0352 deg
 Eccentricity:    0.0352021
 Arg of perigee:   072.5019 deg
 Mean anomaly:     291.4256 deg
 Mean motion:   13.52706561 rev/day
 Decay rate:       1.19e-06 rev/day^2
 Epoch rev:           17855
 Checksum:              314
-------------------  FO-29(JAS-2)のテレメトリに関する情報  ----------------------
 
 2)上記の3月30日(木)のテレメトリの最後の行の
  分析結果です。

  AS17860C1  30Mar2000
  12:03-12:18(JST)
  Freq.435.805-.786MHz  
 
  HI HI AE C7 88 55 0E 30 FF 0D 00 2E 87 BF 68 60 92 90 B0 57 B6 B2 B5 B6 B4 
 
 テレメトリ  	内   容	    	換算値	単 位 
 
 3C	磁気センサーZ軸=	66176.5	[nT]
 3D	磁気センサX軸	=	93627.4	[nT]
 4A	太陽電池発生電流=	 1019.6	[mA]
 4B	B充放電電流	=	 -118.4	[mA]
 4C	B端子電圧	=	   15.7	[V]
 4D	B中間端子電圧	=	    6.9	[V]
 5A	バス電圧 	=	   17.3	[V]
 5B	JTA送信電力	=	  467.4	[mW]
 5C 	構体温度1	=	   11.2	[℃]
 5D	構体温度2	=	   12.8	[℃]
 6A	構体温度3	=	   11.6	[℃]
 6B	構体温度4	=	   11.2	[℃]
 6C	Bセル温度	=	   12.0	[℃]
  
  * OSはWindows 2000,Office 2000 にて計算処理.

------------ FO−29,FO‐20の軌道計算 QT98 Ver4.Jについての 情報 
-------------------------
 
 3)[jamsat-bb:5175]に藤田忠義氏が投稿されていましたので
   転載させて頂きました.

  [jamsat-keps:978] 配送の軌道要素の元期部分 "2000年" を 
  "1999年" の通日加算と見なし、書き換えました。
                            2000/3/25
                                  7N1JVW 藤田忠義  横浜市緑区
                                    E-mail: FA7T-FJT@asahi-net.or.jp 

 首記方法による軌道要素書換えのリクエストがありましたのでアップします。

 この軌道要素書き換えの目的は、QT98 Ver4.J など元期の整数部分が"2000年" に
 対応していないソフトウエアで、"1999年" の通日加算と見なせば使用可能な位置
 予報計算ソフトのためにおこないました。

       ***** 元期整数部分の書換え要旨 *****

 例えば 00020.***(2000年の通日20)は、99365.***(1999年最後の日)に
 "20" を加え 99385.***とみなす。

 各行末尾(行の右端)にあるチェックサムは、書き換えをしていません。
 なお書換え軌道要素を使用した計算結果の確認は、数個の衛星をソフトウエアQT98
  Ver4.J でのみおこなっています。

 AO-10
 1 14129U 83058B   99443.68504295 -.00000282  00000-0  10000-3 0  6348
 2 14129  27.0149 340.4683 6023357  36.2569 352.3203  2.05873459126063
 UO-11
 1 14781U 84021B   99446.89761242  .00003013  00000-0  49205-3 0 02638
 2 14781 097.9718 046.6460 0012312 028.0437 332.1422 14.71572402859465
 RS-10/11
 1 18129U 87054A   99448.85639534  .00000149  00000-0  14698-3 0  7611
 2 18129  82.9255 211.6176 0011203 302.2890  57.7180 13.72477327638861
 FO-20
 1 20480U 90013C   99448.38529536  .00000003  00000-0  86461-4 0  2130
 2 20480  99.0381 229.9075 0539803 249.5928 104.6418 12.83265805474275
 AO-21
 1 21087U 91006A   99448.86761266  .00000094  00000-0  82657-4 0  1286
 2 21087  82.9459  23.5018 0034821 333.6800  26.2586 13.74683608459000
 RS-12/13
 1 21089U 91007A   99448.89054007  .00000134  00000-0  12587-3 0  2314
 2 21089  82.9190 249.0250 0029955   5.6173 354.5318 13.74178015457962
 RS-15
 1 23439U 94085A   99448.99904800 -.00000041  00000-0  46934-4 0  4493
 2 23439  64.8190 318.2725 0166127 303.8308  54.6899 11.27535103215903
 FO-29
 1 24278U 96046B   99447.21198572  .00000055  00000-0  89764-4 0 03355
 2 24278 098.5894 001.4801 0352108 092.0200 272.1296 13.52704146177539
  
 ==================================================================================

  4)JARL のホームページに運用予定が記載されていましたのでご紹介します.
       ( http://www.jarl.or.jp/Japanese/3_Fuji/new/uy.htm )

        ■ ふじ3号/FOー29/JAS-2 ■  
   
     *** 運用予定について ***   

 03月25日 〜 04月02日 アナログ系運用 
 04月03日 〜 04月06日 デジタル系1200bpsメールボックス運用 
 04月07日 〜 04月16日 アナログ系運用 
 04月17日 〜 04月20日 デジタル系1200bpsメールボックス運用 
 04月21日 〜 05月07日 アナログ系運用 

 *なお,運用予定は都合により変更することがありますのでご了承願います。

 照会先 : lab@jarl.or.jp

 最新の情報はテレホンサービス(03−3942−1000)をお聞きください。  
 以後の運用につきましては4月下旬にお知らせいたします。
 
-----------------------    FO−20(JAS-1b)道要素   -------------------------
  5)
  ■ 軌道要素1 :出典はFO-29「ふじ3号」に同じ.
  
  FO-20
 1 20480U 90013C   00089.93445743  .00000059  00000-0  21159-3 0 02306
 2 20480 099.0384 235.2208 0539859 234.7400 120.2048 12.83266696475114

  ■ 軌道要素2 :出典はFO−29「ふじ3号」に同じ.
               
  Satellite: FO-20
 Catalog number: 20480
 Epoch time:      00089.93445743
 Element set:    0230
 Inclination:      099.0384 deg
 RA of node:       235.2208 deg
 Eccentricity:    0.0539859
 Arg of perigee:   234.7400 deg
 Mean anomaly:     120.2048 deg
 Mean motion:   12.83266696 rev/day
 Decay rate:        5.9e-07 rev/day^2
 Epoch rev:           47511
 Checksum:              300

 --------------------------------------------------------------------------------
 6)         ■ ふじ2号/FO−20/JAS-1b ■      
            
          「ふじ2号」 現況                                                                                  
             
   JAS-1b(ふじ2号)のCWテレメトリ信号に,1997年10月12日12時(JST)の
 日本上空通過時,3桁の数字が繰り返されるはずが3個の長音の繰り返しとなっているという
 異常が発見されました。この不具合は次の通過時からは回復していましたが13日15時20分の
 通過時に再び観測されました。現在はA0の送信が続いています。衛星のアナログ系中継モード
 動作は異常が無く,正常時のテレメトリ内容からは衛星の動作に異常は認められません。従って,
 直ちに衛星のミッションに影響することは無いと予想されますので,当面はアナログ系中継
 モードを継続します。衛星は既に打ち上げてから7年8ヶ月を経ておりますので,今後は監視を
 強化する予定です。アマチュア各位のレポートをお待ちします。
 -------------------------------------------------------------------------------- 
  1997年10月14日 00時35分 確認のテレメトリ音 151 KB (A0) 
  1997年10月14日 11時10分 確認のテレメトリ音 216 KB (異常キーイング) 

  以上 JARLのホ−ムページの http://www.jarl.or.jp/Japanese/3_Fuji/new/fuji.htm
                                           
   =============   JAS-2 (ふじ3号)と現在までの情報   ===========
  
  A.電話によるふじ3号の運用情報
      社団法人日本アマチュア連盟によるサービス
           TEL .   03− 3942 − 1000
  B.アマチュア無線FAXサービス
      JARLによるふじ3号の軌道情報(オービットカレンダー)
         FAX No.  03− 3233 −0055
  C.WWWブラウザで情報を簡単に見れる人のためにJAS−2
     ふじ3号の衛星としての運用されるまでの名前)の概要、打ち上げ
     までの状況、運用中における状況を説明したホームページを紹介し
     ておきます.
     社団法人日本アマチュア無線連盟(JARL)のホームページ

          http://www.jarl.or.jp/Japanese/3_Fuji/jasmenu.htm
 
     宇宙開発事業団(NASDA)ホームページ 
          http://www.nasda.go.jp/
         打上げ衛星 :地球観測プラットフォーム技術衛星(ADEOS) 
                       アマチュア衛星3号(JAS-2)
          http://yyy.tksc.nasda.go.jp/Home/Press/Press-j/jas-2_j.html        

  D.JAMSATによる軌道情報の活用
        JAMSATのホームページまたはjamsat−kepsの軌道要素より
      衛星の軌道情報を得る.
     JAMSATホームページ
               URL    http://www.jamsat.or.jp
       上記ホームページでは各地で行われるアマチュア通信衛星に関する
      ミューティングのお知らせや世界のアマチュア衛星に関する情報が
      満載されています.
 ========================================================================  
     JAMSATのメンバーのご協力によりJH6MME(高山 秀造)が
    執筆・編集を担当しております.ご指摘の意見、疑問やこのようにしたら
    というアイデアがありましたら小さなことでもかまいませんので気軽に下
    記アドレスまでご連絡ください.jamsat−newsからjas2
    infoへの転載をJH4PHW局坂井さんに担当して頂いております.  
                  E-mail : jh6mme@jamsat.or.jp : jh4phw@jamsat.or.jp
 ===============================   END  ===============================